Hourly Data Report for October 20, 2017

VICTORIA UNIVERSITY CS
BRITISH COLUMBIA

48°27'25.200" N
123°18'16.600" W
60.10 m
1018598
71783
WYJ

Download Data

Hourly Data (October 2017)
Hourly Data Report for October 20, 2017
TIME
LST
Temp Definition
°C
Dew Point Definition
°C
Rel Hum Definition
%
Precip. Amount Definition
mm

Wind Dir Definition
10's deg

Wind Spd Definition
km/h
Visibility Definition
km
Stn Press Definition
kPa
Hmdx Definition


Wind Chill Definition


Weather Definition


00:00 7.5 6.6 94 0.0 26 4   99.17     LegendNANA
01:00 7.2 6.1 92 0.0 26 5   99.18     LegendNANA
02:00 6.8 5.7 93 0.0 28 1   99.23     LegendNANA
03:00 6.4 5.6 95 0.0 30 1   99.29     LegendNANA
04:00 7.4 6.4 93 0.0 26 3   99.36     LegendNANA
05:00 7.2 6.5 95 0.2 17 5   99.44     LegendNANA
06:00 7.7 7.1 96 0.0 16 6   99.50     LegendNANA
07:00 7.9 7.3 96 0.0 16 2   99.52     LegendNANA
08:00 8.2 7.6 96 0.6 16 3   99.60     LegendNANA
09:00 8.8 8.1 96 0.3 14 3   99.66     LegendNANA
10:00 8.8 7.9 94 1.0 21 4   99.74     LegendNANA
11:00 11.2 8.6 84 0.2 23 10   99.79     LegendNANA
12:00 11.6 8.1 79 0.0 23 14   99.83     LegendNANA
13:00 9.8 7.2 84 0.0 24 11   99.90     LegendNANA
14:00 11.5 6.9 73 0.0 25 13   99.96     LegendNANA
15:00 11.7 6.0 68 0.3 26 8   100.05     LegendNANA
16:00 10.8 5.2 68 0.0 25 8   100.12     LegendNANA
17:00 9.5 4.6 72 0.0 25 6   100.22     LegendNANA
18:00 7.9 4.2 77 0.0 26 3   100.32     LegendNANA
19:00 7.4 4.8 84 0.0 27 4   100.39     LegendNANA
20:00 5.9 4.7 92 0.0 32 1   100.42     LegendNANA
21:00 6.8 5.3 90 0.0 13 2   100.49     LegendNANA
22:00 8.4 7.0 91 0.0 14 3   100.50     LegendNANA
23:00 8.2 6.2 87 0.0 15 2   100.45     LegendNANA

Notes on Data Quality.

Legend

  • E = Estimated
  • M = Missing
  • NA = Not Available*
  • [empty] = Indicates an unobserved value
Date modified: